292  
ASUS46 KPDT 230325  
RWRPDT  
PENDLETON REGIONAL WEATHER ROUNDUP  
NATIONAL WEATHER SERVICE PENDLETON OREGON  
800 PM PDT FRI AUG 22 2014  
 
NOTE: FAIR INDICATES FEW OR NO CLOUDS BELOW 12,000 FEET WITH NO  
SIGNIFICANT WEATHER AND/OR S TO VISIBILITY
.  
 
# INDICATES UNOFFICIAL STATION AND DATA  
 
WAZ520-230410-  
EAST SLOPES OF WASHINGTON CASCADES  
 
CITY SKY/WX TMP DP RH WIND PRES REMARKS
 
#CLE ELUM HS N/A 58 53 83 CALM 30.03R  
#CLE ELUM 2NW N/A 57 52 83 SW1 N/A  
#CLE ELUM LAKE N/A 54 52 93 E1 30.01R  
#CLIFFDEL 2NW N/A 63 49 60 W3 N/A  
#GLENWOOD N/A 65 53 65 CALM 29.99R  
#NELSON N/A 57 54 90 CALM 30.03R  
#NELSON 3SW N/A 52 50 93 CALM 30.22R  
#NILE N/A 59 57 93 CALM 29.28R  
#RONALD 2NW N/A 56 52 86 N1 29.97R  
#TEANAWAY 4NE N/A 60 54 81 CALM N/A  
#TROUT LAKE 1NE N/A 60 57 90 CALM 29.98R  

 
 
WAZ521-230410-  
SIMCOE HIGHLANDS  
 
CITY SKY/WX TMP DP RH WIND PRES REMARKS
 
#BICKLETON HS N/A 64 36 35 N7 30.09R  
#CENTERVILLE 4W N/A 70 49 47 N7 29.78R  
#CENTERVILLE 1SWN/A 69 48 47 W5 29.93R  
#GOLDENDALE N/A 74 44 34 NW9 N/A  
#GOLDENDALE 1NE N/A 71 40 32 N5 N/A  
#GOLDENDALE 1S N/A 69 49 49 E3 30.00R  
#GOLDENDALE 5WNWN/A N/A N/A N/A S3 29.95R  
#GOODNOE HILLS N/A 69 52 55 NW17 29.93R  
#LYLE 6NE N/A 69 53 57 SW3 29.93R  

 
 
WAZ026-230410-  
KITTITAS VALLEY  
 
CITY SKY/WX TMP DP RH WIND PRES REMARKS
 
ELLENSBURG AP MOCLDY 65 49 56 NW18 30.04R  
#ELLENSBURG CWU N/A 64 50 60 N8 29.96R  
#ELLENSBURG 3NE N/A 62 52 70 N5 30.05R  
#ELLENSBURG N/A 67 52 59 NW2 N/A  
#ELLENSBURG 1E N/A 64 47 54 CALM N/A  
#KITTITAS 3S N/A 62 52 70 CALM 29.97R  
#THORP 6N N/A 62 48 60 N7 30.02R  

 
 
WAZ027-230410-  
YAKIMA VALLEY  
 
CITY SKY/WX TMP DP RH WIND PRES REMARKS
 
SUNNYSIDE AP PTCLDY 68 50 53 W6 29.98R  
YAKIMA AIRPORT MOCLDY 71 52 51 NE7 30.02R  
YAKIMA-VAGABOND MOCLDY 68 49 51 E12 30.04R  
#COWICHE 1N N/A 67 49 52 N2 30.21R  
#DONALD 2NE N/A 65 52 63 SW1 30.33R  
#GRANDVIEW N/A 70 48 46 CALM 29.97R  
#MABTON N/A 69 53 57 NW7 29.98R  
#MOXEE 2E N/A 68 41 37 N8 29.94R  
#NACHES 2SW N/A 66 53 63 W2 30.01S  
#OUTLOOK DOT N/A N/A N/A N/A W6 N/A  
#SELAH 8E N/A 62 52 70 CALM N/A  
#TERRACE HTS N/A 65 54 68 N2 29.93R  
#TOPPENISH N/A 68 54 61 NW5 29.89R  
#WAPATO 4NE N/A 65 52 63 SW1 30.33R  
#WEST VALLEY N/A 69 52 55 N3 29.96R  
#W YAKIMA N/A 68 52 57 N1 29.98R  
#WHITE SWAN 5E N/A 65 56 73 NW1 29.98R  
#WILEY CITY 3W N/A 70 50 49 CALM 30.02R  

 
 
WAZ028-230410-  
LOWER COLUMBIA BASIN...WASHINGTON  
 
CITY SKY/WX TMP DP RH WIND PRES REMARKS
 
PASCO PTCLDY 74 52 46 N15 29.92R  
PROSSER AWOS N/A 70 50 49 W8 30.01R  
RICHLAND AWOS PTCLDY 75 50 41 N14 29.93R  
#BASIN CITY 5SW N/A 74 50 43 N10 29.95R  
#BENTON CITY N/A 76 52 43 NW6 29.83R  
#CONNELL 5N N/A 66 55 68 N12 29.91R  
#CONNELL 5NW N/A 68 52 57 N13 29.88R  
#ELTOPIA N/A 74 52 46 N10 29.89R  
#ELTOPIA 6NW N/A 71 52 51 N10 28.92R  
#KENNEWICK 3S N/A 75 50 41 CALM 29.92R  
#PATERSON N/A 73 52 48 N10 29.91R  
#PROSSER N/A 71 49 46 W6 29.95R  
#SAGEMOOR 2W N/A 71 52 51 N9 29.77R  
#TOUCHET 2S N/A 77 51 40 SW5 29.87R  
#WEST PASCO N/A 76 52 43 NW6 29.91R  

 
 
WAZ029-230410-  
FOOTHILLS OF THE BLUES...WASHINGTON  
 
CITY SKY/WX TMP DP RH WIND PRES REMARKS
 
WALLA WALLA AP MOCLDY 67 50 54 E7 29.96R  
#COLLEGE PLACE N/A 69 53 57 E1 29.92R  
#DAYTON SCHOOL N/A 70 43 38 CALM 29.94R  
#LOWDEN 2SE N/A 75 51 43 S6 29.88R  
#PLEASANT VIEW 1N/A 71 43 36 N7 29.95R  
#PRESCOTT N/A 70 49 47 CALM 29.89R  
#SUDBURY N/A 66 N/A N/A CALM N/A  
#WHITMAN COLLEGEN/A 65 52 63 E3 29.95R  
#WAITSBURG 8N N/A 67 30 25 S3 29.88R  
#WALLA WALLA 5E N/A 74 47 38 E15 N/A  

 
 
WAZ030-230410-  
BLUE MOUNTAINS...WASHINGTON  
 
CITY SKY/WX TMP DP RH WIND PRES REMARKS
 

 
 
ORZ009-041-WAZ024-230410-  
COLUMBIA RIVER GORGE  
 
CITY SKY/WX TMP DP RH WIND PRES REMARKS
 
HOOD RIVER AP PTCLDY 70 55 59 CALM 30.00R  
THE DALLES AP CLEAR 76 52 43 NW13 29.96R  
#ARLINGTON AIRPON/A 74 49 41 N3 N/A  
#ARLINGTON HS N/A 78 49 36 W2 29.83R  
#MARYHILL 2W N/A 76 51 42 N3 N/A  
#MOSIER 1S N/A 71 43 36 W2 30.06R  
#MURDOCK N/A 76 56 50 NW10 29.97R  
 

 
 
ORZ510-230410-  
NORTH CENTRAL OREGON  
 
CITY SKY/WX TMP DP RH WIND PRES REMARKS
 
#CHENOWITH 1W N/A 67 51 56 NW16 N/A  
#COW CYN RST AREN/A 66 44 45 N7 N/A  
#DUFUR 9E N/A 66 52 61 NW10 30.00R  
#GRASS VALLEY N/A 65 49 56 NW3 N/A  
#GRASS VALLEY 1SN/A 67 50 54 N7 29.98S  
#KENT DOT N/A 65 40 40 NW10 N/A  
#MAUPIN SCHOOL N/A 75 48 38 CALM 28.86R  
#MORO SCHOOL N/A 69 57 66 NW13 30.02R  
#SHANIKO 5WSW N/A 63 40 43 N16 N/A  
#SHANIKO 4NW N/A 63 43 48 N12 30.08R  
#TYGH VALLEY 2NEN/A 73 49 43 N5 29.94R  
#WAPANITIA AIRPON/A 69 49 49 NW3 29.97R  
#WASCO DOT N/A 74 50 43 W8 N/A  
#WASCO AIRPORT N/A 72 46 39 W8 N/A  
#WASCO 5NE N/A 68 52 57 N5 29.96R  

 
 
ORZ511-230410-  
CENTRAL OREGON  
 
CITY SKY/WX TMP DP RH WIND PRES REMARKS
 
BEND AIRPORT MOCLEAR 64 39 40 NW7 30.08R  
MADRAS AIRPORT PTCLDY 70 43 38 NW16 30.05R  
REDMOND AIRPORT PTCLDY 67 39 36 N8 30.04R  
#BEND 6E N/A 63 39 41 CALM 29.90R  
#BEND-AWBREY N/A 63 44 50 S3 29.97R  
#BEND-KIM LN N/A 64 43 46 NW1 30.04R  
#CROOKED RVR RANN/A 69 45 42 NE7 29.94R  
#CULVER N/A 67 44 43 NW6 30.01R  
#LAKE BILLY CHINN/A 68 7 9 N20 30.08R  
#POWELL BUTTE 3EN/A 68 40 36 N10 N/A  
#POWELL BUTTE N/A 64 42 45 N1 29.70R  
#PRINEVILLE 3N N/A 66 45 47 CALM 29.91R  
#WARM SPRINGS N/A 72 48 43 SW7 29.98R  
 
 
ORZ509-230410-  
EAST SLOPES OF OREGON CASCADES  
 
CITY SKY/WX TMP DP RH WIND PRES REMARKS
 
#BLUE BOX PASS N/A 55 3 12 NW6 N/A  
#BLACK BUTTE RNCN/A 61 52 72 CALM 29.97R  
#CAMP SHERMAN N/A 63 51 65 CALM 30.02R  
#LA PINE DOT N/A 60 39 46 W3 N/A  
#LA PINE 4NW N/A 56 48 74 CALM 30.02R  
#LAVA BUTTE DOT N/A 60 37 42 CALM N/A  
#SISTERS AIRPOR N/A 60 57 90 CALM 30.05R  
#SISTERS ODOT N/A 59 N/A N/A CALM N/A  
#SISTERS 1NW N/A 60 51 72 N7 N/A  
#SISTERS 3N N/A 59 50 72 CALM N/A  
#SUNRIVER N/A 60 44 55 CALM 29.86R  
#SUTTLE LK DOT N/A 58 46 64 E6 N/A  
#TUMALO 3W N/A 61 47 60 W7 29.86R  
#WANOGA BUTTE D N/A 50 40 68 N2 N/A  
 

 
 
ORZ044-230410-  
LOWER COLUMBIA BASIN...OREGON  
 
CITY SKY/WX TMP DP RH WIND PRES REMARKS
 
HERMISTON PTCLDY 73 53 49 SW5 29.93R  
#BOARDMAN SCHOOLN/A 76 53 45 N5 29.93R  
#BOARDMAN 3W N/A 70 56 61 N2 29.65R  
#BOARDMAN 8SW N/A 74 54 50 N3 29.93R  
#ECHO 8SW N/A 66 49 54 CALM 29.92R  
#IONE SCHOOL N/A 73 48 41 N13 29.98R  
#IRRIGON 4NW N/A 77 56 48 W3 N/A  
#UMATILLA SCHOOLN/A 76 61 60 CALM 30.00R  
#UMATILLA N/A 77 51 40 CALM 29.90R  

 
 
ORZ507-230410-  
NORTHERN FOOTHILLS OF THE BLUES  
 
CITY SKY/WX TMP DP RH WIND PRES REMARKS
 
PENDLETON AIRPT PTCLDY 71 47 42 E12 29.97R  
#ADAMS 3WNW N/A 69 50 51 E6 29.91R  
#ATHENA N/A 65 49 56 E1 29.93S  
#HELIX SCHOOL N/A 70 43 38 SE6 29.91R  
#HELIX 3N N/A 69 42 37 E8 29.95R  
#HOLDMAN 5SE N/A 71 52 51 W3 29.96R  
#HOLDMAN 6E N/A 72 47 41 E2 29.73R  
#M-F GROVE ELEM N/A 64 52 65 CALM 29.93F  
#M-FREEWATER 5SEN/A 63 53 70 E1 29.96S  
#PDT AQUATIC CTRN/A 73 44 35 NE6 29.96R  
#PENDLETON DNTN N/A 75 45 34 NW1 29.92R  
#PDT SUNRIDGE N/A 72 48 43 E3 29.97R  
#PENDLETON 7NW N/A 73 54 51 CALM 25.33S  
#PILOT ROCK N/A 69 46 44 CALM 29.99S  
#TUTUILLA N/A 70 51 51 E5 29.86R  
#UMAPINE 2E N/A 62 54 75 S3 29.90F  
#WESTON SCHOOL N/A 64 45 50 SW5 29.93S  
 

 
 
ORZ508-230410-  
SOUTHERN FOOTHILLS OF THE BLUES  
 
CITY SKY/WX TMP DP RH WIND PRES REMARKS
 
LEXINGTON MOCLEAR 68 48 49 NW7 30.01R  
#AJAX N/A 70 40 34 NW8 29.96R  
#CONDON SCHOOL N/A 67 45 45 NW2 30.01R  
#CONDON 5W N/A 62 43 50 NW7 30.03R  
#FOSSIL SCHOOL N/A 68 45 44 N1 30.00R  
#HEPPNER 4NE N/A 64 47 54 CALM 29.93S  
#LEXINGTON 2SE N/A 73 48 41 N10 29.96R  
#MIKKALO N/A 74 41 30 NW6 30.00R  
#OLEX 4N N/A 74 52 46 NW5 29.96R  
#RUGGS 5NE N/A 65 44 46 N7 30.20S  
#RUGGS 2SW N/A 68 47 47 N6 29.99R  
 

 
 
ORZ502-503-230410-  
BLUE MOUNTAINS  
 
CITY SKY/WX TMP DP RH WIND PRES REMARKS
 
MEACHAM LGT RAIN 57 49 75 N8 30.07R  
#BATTLE MTN DOT N/A 57 51 80 N2 N/A  
#HARDMAN 10S N/A 59 40 49 CALM 30.12R  
#HEPPNER 15SE N/A 58 47 67 CALM 30.00R  
#LADD CYN SMT N/A 52 47 83 N2 N/A  
#LADD CREEK ODOTN/A 52 51 96 S2 N/A  
#LONG CREEK HS N/A 61 45 56 N7 N/A  
#N POWDER DOT N/A 54 51 90 NW7 N/A  
#PIKES PEAK N/A 63 38 39 S6 27.99S  
#TOLLGATE N/A 50 42 74 CALM 30.02R  
#TOLLGATE 9W N/A 65 43 45 NE3 N/A  
#TROY SCHOOL N/A 63 53 70 CALM 29.83R  
#UKIAH N/A 62 47 58 N3 30.00R  
#WESTON 4E N/A 60 44 55 E9 29.87R  

 
 
ORZ505-230410-  
JOHN DAY BASIN  
 
CITY SKY/WX TMP DP RH WIND PRES REMARKS
 
JOHN DAY MOCLDY 63 40 43 N6 30.05R  
#JOHN DAY KJDY N/A 68 41 37 NW1 30.15R  
#MONUMENT HS N/A 72 41 33 VRB3 30.00R  
#MT. VERNON 5SE N/A 62 42 48 CALM 30.01R  
#WINLOCK N/A 62 43 50 CALM 30.12R  

 
 
ORZ506-230410-  
OCHOCO AND JOHN DAY HIGHLANDS  
 
CITY SKY/WX TMP DP RH WIND PRES REMARKS
 
#BUCK CREEK DOT N/A 66 40 38 N10 N/A  
#HORSE RIDGE DO N/A 63 36 36 NW7 N/A  
#KEYES SMT DOT N/A 61 39 44 N6 N/A  
#PAULINA SCHOOL N/A N/A N/A N/A NE1 30.04R  
#PRAIRIE CITY N/A 60 41 49 CALM 29.97R  
#SENECA 9NW N/A 59 39 47 CALM 29.92R  

 
 
ORZ049-230410-  
GRANDE RONDE VALLEY  
 
CITY SKY/WX TMP DP RH WIND PRES REMARKS
 
LA GRANDE MOCLDY 59 43 55 E8 30.03R  
#COVE N/A 55 52 90 CALM 29.95R  
#COVE SCHOOL N/A 56 50 80 CALM 30.01R  
#COVE 6NW N/A 55 49 80 CALM 30.01R  
#ELGIN 3N N/A 58 43 57 CALM 29.78R  
#ELGIN 1E N/A 58 49 72 CALM N/A  
#IMBLER SCHOOL N/A 57 47 69 N3 30.00R  
#ISLAND CITY 4N N/A 61 48 62 N5 29.89R  
#LADD CYN DOT N/A 56 51 83 SE8 N/A  
#LA GRANDE ELEM N/A 59 47 64 W12 30.00S  
#UNION 1S N/A 55 50 83 NW3 29.86R  

 
 
ORZ050-230410-  
WALLOWA COUNTY  
 
CITY SKY/WX TMP DP RH WIND PRES REMARKS
 
JOSEPH AIRPORT RAIN 50 48 93 CALM 30.12R  
#ENTERPRISE AP N/A 51 46 83 E7 30.03R  
#ENTERPRISE HS N/A 51 48 89 CALM 30.09R  
#IMNAHA SCHOOL N/A 56 52 86 CALM 30.02S  
#IMNAHA 10S N/A 51 49 93 S1 30.06F  
#JOSEPH 3N N/A 49 45 86 E5 30.11R  
#JOSEPH 3W N/A 47 46 96 CALM 29.95R  
#MT HOWARD 8000 N/A 37 36 96 NW5 30.19S  
#PROMISE 1S N/A 56 47 72 N7 30.07R  
#SHEEP RDG 7000 N/A 42 36 79 CALM 29.97R  
#WALLOWA SCHOOL N/A 53 50 89 CALM 30.89R  
 

 
 
CLICK HERE TO GO TO PREVIOUS BULLETINS.

The Nexlab OR Page
The Nexlab WA Page Main Text Page